sat.trackr.live / text

‹ back to catalog

FORMOSAT-5

NORAD 42920 · 2017-049A

PAYLOAD ACTIVE UNKNOWN

§ Identity

Operator
Country
ROC
Launch date
2017-08-24
Launch site
AFWTR
Launch vehicle
Mass (kg)
RCS (m²)

Purposes: earth_obs

External: N2YO · Heavens-Above · Gunter

§ Orbital elements

Epoch: 2026-05-25T03:46:03.561024Z

Period
99.25 min
Inclination
98.2254°
Eccentricity
0.0012120
Mean motion
14.50888049 rev/d
Perigee alt
714.1 km
Apogee alt
731.4 km
Semi-major
7,100.9 km
B*
4.1586e-5
RAAN
220.9778°
Arg perigee
148.7103°
Mean anomaly
211.4815°
Rev number
46,333

§ Raw data

FORMOSAT-51 42920U 17049A   26145.15698566  .00000121  00000+0  41586-4 0  99932 42920  98.2254 220.9778 0012120 148.7103 211.4815 14.50888049463332

JSON: /api/v1/satellites/42920 · /tle

For live sub-satellite position, see the globe view (requires WebGL).

§ Visibility from observer

Set your observer location to see the next 7 days of passes ≥ 10°. The values pass through the URL so the page stays shareable.

No JS? Fill the form by hand. The geolocation button needs JavaScript.

§ Radio — SatNOGS DB

ModeDescriptionDownlinkUplink
FM Downlink 401.051 MHz
FM Mode S 2.215 GHz

2 transmitters · refreshed weekly from db.satnogs.org